Location: Sun City Center
(27.6996°N, 82.3528°W)
Time: 23:48:37
(UTC-04:00)

Cosmos 2084 Rocket - Visible Passes

Search period start: 22 October 2014 00:00
Search period end: 01 November 2014 00:00
Orbit: 549 x 647 km, 62.8° (Epoch: 22 October)

Date Brightness Start Highest point End Pass type
(mag) Time Alt. Az. Time Alt. Az. Time Alt. Az.
22 Oct 3.6 19:21:34 10° NNW 19:26:08 79° ENE 19:30:45 10° SSE visible
23 Oct 4.7 19:32:08 10° NW 19:36:32 49° WSW 19:41:00 10° S visible
24 Oct 6.2 19:43:11 10° WNW 19:46:52 24° WSW 19:50:35 10° SSW visible
25 Oct 7.0 19:55:28 10° W 19:57:07 12° WSW 19:58:47 10° SW visible
28 Oct 6.6 06:55:46 10° SE 06:58:02 15° ESE 07:00:19 10° ENE visible
29 Oct 5.5 07:04:40 10° S 07:08:16 31° ESE 07:11:56 10° NE visible
